Weather History for Greensboro, NC

Change the Weather History Date:

Sunday, October 6, 2013

  Actual Average Record
Temperature  
Mean Temperature 74 °F 63 °F  
Max Temperature 84 °F 73 °F 94 °F (1941)
Min Temperature 63 °F 52 °F 33 °F (1935)
Degree Days  
Heating Degree Days 0 4  
Month to date heating degree days 0 21  
Since 1 July heating degree days 16 52  
Cooling Degree Days 9 2  
Month to date cooling degree days 43 13  
Year to date cooling degree days 1374 1460  
Growing Degree Days 24 (Base 50)    
Moisture  
Dew Point 62 °F    
Average Humidity 67    
Maximum Humidity 87    
Minimum Humidity 47    
Precipitation  
Precipitation 0.00 in 0.10 in 1.23 in (1945)
Month to date precipitation 0.00 0.61  
Year to date precipitation 40.52 33.59  
Sea Level Pressure  
Sea Level Pressure 29.98 in    
Wind  
Wind Speed 8 mph (South)    
Max Wind Speed 13 mph    
Max Gust Speed 17 mph    
Visibility 10 miles    
Events      
T = Trace of Precipitation, MM = Missing Value Source: NWS Daily Summary

Daily Weather History Graph

Daily Weather History Graph

Search for Another Location

Airport:

Trip Planner

Search our weather history database for the weather conditions in past years. The results will help you decide how hot, cold, wet, or windy it might be!

Date:

Astronomy

Oct. 06, 2013 Rise Set
Actual Time 7:19 AM EDT 6:55 PM EDT
Civil Twilight 6:53 AM EDT 7:21 PM EDT
Nautical Twilight 6:23 AM EDT 7:51 PM EDT
Astronomical Twilight 5:53 AM EDT 8:20 PM EDT
Moon 8:57 AM EDT (10/6) 7:58 PM EDT (10/6)
Length of Visible Light 12h 28m
Length of Day
11h 36m
Waxing Crescent, 3% of the Moon is Illuminated
Oct 6
Waxing Crescent
Oct 11
First Quarter
Oct 18
Full
Oct 26
Last Quarter
Nov 3
New

Hourly Weather History & Observations

Time (EDT) Temp. Heat Index Dew Point Humidity Pressure Visibility Wind Dir Wind Speed Gust Speed Precip Events Conditions
12:54 AM 68.0 °F - 63.0 °F 84% 30.04 in 10.0 mi South 4.6 mph - N/A   Clear
1:54 AM 68.0 °F - 62.1 °F 81% 30.04 in 10.0 mi South 6.9 mph - N/A   Clear
2:54 AM 66.9 °F - 61.0 °F 81% 30.03 in 10.0 mi SSW 5.8 mph - N/A   Clear
3:54 AM 66.0 °F - 59.0 °F 78% 30.01 in 10.0 mi SSW 5.8 mph - N/A   Clear
4:54 AM 64.9 °F - 59.0 °F 81% 30.01 in 10.0 mi South 4.6 mph - N/A   Clear
5:54 AM 64.0 °F - 60.1 °F 87% 30.01 in 10.0 mi South 5.8 mph - N/A   Clear
6:54 AM 64.0 °F - 60.1 °F 87% 30.03 in 10.0 mi SSW 4.6 mph - N/A   Scattered Clouds
7:54 AM 64.0 °F - 61.0 °F 90% 30.04 in 7.0 mi South 3.5 mph - N/A   Scattered Clouds
8:54 AM 69.1 °F - 63.0 °F 81% 30.04 in 10.0 mi SSW 4.6 mph - N/A   Scattered Clouds
9:54 AM 73.9 °F - 64.0 °F 71% 30.04 in 10.0 mi WSW 8.1 mph - N/A   Mostly Cloudy
10:54 AM 77.0 °F - 64.0 °F 64% 30.04 in 10.0 mi SW 8.1 mph - N/A   Mostly Cloudy
11:54 AM 79.0 °F - 62.1 °F 56% 30.02 in 10.0 mi SSW 11.5 mph - N/A   Scattered Clouds
12:54 PM 81.0 °F 81.7 °F 61.0 °F 50% 30.00 in 10.0 mi South 11.5 mph - N/A   Mostly Cloudy
1:54 PM 81.0 °F 81.7 °F 61.0 °F 50% 29.97 in 10.0 mi SSW 9.2 mph - N/A   Mostly Cloudy
2:54 PM 82.0 °F 83.0 °F 62.1 °F 51% 29.95 in 10.0 mi SSW 10.4 mph - N/A   Mostly Cloudy
3:54 PM 82.9 °F 83.3 °F 61.0 °F 47% 29.93 in 10.0 mi SSE 15.0 mph - N/A   Scattered Clouds
4:54 PM 82.0 °F 82.7 °F 61.0 °F 49% 29.92 in 10.0 mi South 12.7 mph - N/A   Mostly Cloudy
5:54 PM 80.1 °F 80.9 °F 60.1 °F 50% 29.92 in 10.0 mi South 11.5 mph - N/A   Partly Cloudy
6:54 PM 75.9 °F - 60.1 °F 58% 29.93 in 10.0 mi South 8.1 mph - N/A   Partly Cloudy
7:54 PM 73.9 °F - 61.0 °F 64% 29.93 in 10.0 mi South 3.5 mph - N/A   Clear
8:54 PM 71.1 °F - 61.0 °F 70% 29.92 in 10.0 mi South 4.6 mph - N/A   Clear
9:54 PM 69.1 °F - 61.0 °F 75% 29.93 in 10.0 mi SSE 5.8 mph - N/A   Partly Cloudy
10:54 PM 71.1 °F - 64.9 °F 81% 29.92 in 10.0 mi South 11.5 mph - N/A   Partly Cloudy
11:54 PM 71.1 °F - 66.9 °F 87% 29.91 in 10.0 mi South 8.1 mph - N/A   Mostly Cloudy